TimeAKST,TemperatureF,Dew PointF,Humidity,Sea Level PressureIn,VisibilityMPH,Wind Direction,Wind SpeedMPH,Gust SpeedMPH,PrecipitationIn,Events,Conditions,WindDirDegrees,DateUTC
12:58 AM,-22.0,-29.0,70,29.85,10.0,Calm,Calm,-,N/A,,Clear,0,2013-01-24 09:58:00
1:58 AM,-17.0,-23.1,74,29.86,10.0,North,4.6,-,N/A,,Clear,10,2013-01-24 10:58:00
2:58 AM,-25.1,-31.0,74,29.88,10.0,Calm,Calm,-,N/A,,Clear,0,2013-01-24 11:58:00
3:58 AM,-22.0,-26.0,82,29.89,10.0,Calm,Calm,-,N/A,,Clear,0,2013-01-24 12:58:00
4:58 AM,-27.0,-33.0,73,29.90,10.0,Variable,3.5,-,N/A,,Clear,0,2013-01-24 13:58:00
5:58 AM,-6.0,-13.0,72,29.91,10.0,NNE,6.9,-,N/A,,Clear,30,2013-01-24 14:58:00
6:58 AM,-4.0,-14.1,62,29.93,10.0,NNE,6.9,-,N/A,,Clear,30,2013-01-24 15:58:00
7:58 AM,-4.0,-15.0,59,29.94,10.0,NNE,6.9,-,N/A,,Clear,30,2013-01-24 16:58:00
8:58 AM,-4.0,-15.0,59,29.95,10.0,NNE,9.2,17.3,N/A,,Clear,30,2013-01-24 17:58:00
9:58 AM,-6.0,-16.1,62,29.97,10.0,Variable,4.6,-,N/A,,Clear,0,2013-01-24 18:58:00
10:58 AM,-5.1,-16.1,59,29.99,10.0,North,6.9,-,N/A,,Clear,10,2013-01-24 19:58:00
11:58 AM,-2.9,-16.1,54,30.00,10.0,Variable,4.6,-,N/A,,Clear,0,2013-01-24 20:58:00
12:58 PM,-0.0,-15.0,49,30.02,10.0,NNE,8.1,-,N/A,,Clear,30,2013-01-24 21:58:00
1:58 PM,1.0,-15.0,47,30.03,10.0,Variable,6.9,-,N/A,,Clear,0,2013-01-24 22:58:00
2:58 PM,1.0,-16.1,45,30.03,10.0,NNE,9.2,-,N/A,,Clear,20,2013-01-24 23:58:00
3:58 PM,-0.0,-17.0,45,30.04,10.0,Variable,6.9,-,N/A,,Clear,0,2013-01-25 00:58:00
5:58 PM,-4.0,-18.0,51,30.07,10.0,North,10.4,17.3,N/A,,Clear,360,2013-01-25 02:58:00
6:58 PM,-6.0,-18.9,54,30.09,10.0,North,9.2,17.3,N/A,,Clear,10,2013-01-25 03:58:00
7:58 PM,-7.1,-18.9,56,30.11,10.0,Variable,5.8,-,N/A,,Clear,0,2013-01-25 04:58:00
8:58 PM,-6.0,-18.9,54,30.11,10.0,North,6.9,-,N/A,,Clear,10,2013-01-25 05:58:00
9:58 PM,-7.1,-20.0,53,30.12,10.0,Variable,5.8,-,N/A,,Clear,0,2013-01-25 06:58:00
10:58 PM,-8.0,-20.9,53,30.12,10.0,Variable,4.6,-,N/A,,Clear,0,2013-01-25 07:58:00
11:58 PM,-9.9,-22.0,55,30.13,10.0,Calm,Calm,-,N/A,,Clear,0,2013-01-25 08:58:00